Regional Weather Roundup
Issued by NWS Sioux Falls, SD

Home | Current Version | Previous Version | Graphics & Text | Print | Product List | Glossary Off
Versions: 1 2 3 4 5 6 7 8 9 10 11 12 13 14 15 16 17 18 19 20 21 22 23 24 25 26 27 28 29 30 31 32 33 34 35 36 37 38 39 40 41 42 43 44 45 46 47 48 49 50

000
ASUS43 KFSD 052210
RWRFSD

WEATHER ROUNDUP FOR SE SOUTH DAKOTA/SW MINNESOTA/NW IOWA
NATIONAL WEATHER SERVICE SIOUX FALLS SD
500 PM CDT TUE MAY 05 2015

NOTE: "FAIR" INDICATES FEW OR NO CLOUDS BELOW 12,000 FEET WITH NO
SIGNIFICANT WEATHER AND OR OBSTRUCTIONS TO VISIBILITY.


SDZ038>040-050-052>070-052300-
SOUTHEAST SOUTH DAKOTA

CITY           SKY/WX    TMP DP  RH WIND       PRES   REMARKS
BROOKINGS      CLOUDY    63  57  82 SE21      30.03F
CHAMBERLAIN    CLOUDY    59  57  92 SE10      29.96F
HURON          CLOUDY    69  54  58 S13G22    29.96F
MADISON        LGT RAIN  64  59  82 SE15G22   30.01F
MITCHELL       CLOUDY    66  57  72 S14       29.99F
SIOUX FALLS    CLOUDY    69  57  65 S10       30.00F
WINNER         LGT RAIN  62  56  80 SE12      29.95F
YANKTON        CLOUDY    68  61  77 E6        29.96F
$$

MNZ071-072-080-081-089-090-097-098-052300-
SOUTHWEST MINNESOTA

CITY           SKY/WX    TMP DP  RH WIND       PRES   REMARKS
FAIRMONT       CLOUDY    57  52  82 E15       30.09F
JACKSON        CLOUDY    59  54  82 E13       30.08F FOG
LUVERNE        CLOUDY    68  55  64 SE9       30.03F
MARSHALL       CLOUDY    63  52  67 SE21G28   30.05F
MONTEVIDEO     PTSUNNY   70  55  60 S23       30.05F
REDWOOD FALLS  CLOUDY    62  53  72 SE17      30.08F
TRACY          CLOUDY    62  56  79 SE16      30.07F
WORTHINGTON    CLOUDY    61  54  77 SE13      30.07F
$$

IAZ001>003-012>014-020>022-031-032-NEZ013-014-SDZ071-052300-
NORTHWEST IOWA

CITY           SKY/WX    TMP DP  RH WIND       PRES   REMARKS
CHEROKEE       PTSUNNY   73  62  69 S12       30.01F
DENISON        PTSUNNY   75  64  69 S8G16     30.00F
ESTHERVILLE    CLOUDY    58  57  97 E16       30.07F
LE MARS        CLOUDY    73  61  64 S10G17    30.00F
ORANGE CITY    CLOUDY    72  57  60 S10       30.01F
SHELDON        CLOUDY    68  64  88 E13       30.02F
SIOUX CITY     PTSUNNY   77  61  57 S14       29.98F
SPENCER        CLOUDY    62  60  93 E14       30.05F FOG
STORM LAKE     PTSUNNY   73  61  64 S15       30.03F
$$

ABBREVIATIONS USED IN REMARKS
   TC - TEMPERATURE IN CELSIUS
  WCI - WIND CHILL INDEX
   HX - HEAT INDEX
  VSB - VISIBILITY



USA.gov is the U.S. government's official web portal to all federal, state and local government web resources and services.